Location: *
(51.2167°N, 10.0667°E)
Time: 15:35:27
(UTC+00:00)

SL-16 R/B - Pass Details

Date: 12 December 2019
Orbit: 840 x 849 km, 71.0° (Epoch: 18 January)

Event Time Altitude Azimuth Distance (km) Brightness Sun altitude
Rises 16:53:13 0° 186° (S) 3,395 5.7 -14.8°
Reaches altitude 10° 16:55:45 10° 180° (S) 2,465 4.8 -15.1°
Maximum altitude 17:01:05 44° 110° (ESE) 1,162 2.6 -15.9°
Enters shadow 17:04:08 24° 52° (NE) 1,711 3.3 -16.4°
